When you browse on this site, cookies collect data to enhance your experience and personalize the content and advertising you see.
Visit our Privacy Policy to learn more. By continuing to use the site, you agree to this use of cookies and data.
  • In Hungary
  • List of Countries
  • For 7 days
  • Water Temperature
  • Satellite Maps
  • Weather Map
  • News
  • Weather Widgets
  • user-avatar
    Login

    Hourly Weather Kastoria

    Today, 21 April, Sunday

    Time Temperature Precipitation Wind Pressure Humidity
    00:00 +5°C° 0 mm 0 mps 708 mmHg 87%
    01:00 +6°C° 0 mm 1 mps 708 mmHg 92%
    02:00 +5°C° 0 mm 0 mps 708 mmHg 92%
    03:00 +5°C° 0 mm 0 mps 708 mmHg 92%
    04:00 +5°C° 0 mm 0 mps 708 mmHg 93%
    05:00 +6°C° 0 mm 0 mps 708 mmHg 88%
    06:00 +7°C° 0 mm 0 mps 708 mmHg 83%
    07:00 +9°C° 0 mm 0 mps 708 mmHg 75%
    08:00 +11°C° 0 mm 0 mps 708 mmHg 69%
    09:00 +13°C° 0 mm 1 mps 708 mmHg 63%
    10:00 +15°C° 0 mm 1 mps 709 mmHg 57%
    11:00 +16°C° 0.1 mm 1 mps 708 mmHg 55%
    12:00 +15°C° 0.1 mm 0 mps 708 mmHg 53%
    13:00 +16°C° 0.1 mm 0 mps 707 mmHg 52%
    14:00 +18°C° 0.1 mm 1 mps 707 mmHg 52%
    15:00 +18°C° 0.1 mm 1 mps 707 mmHg 52%
    16:00 +16°C° 0.1 mm 1 mps 706 mmHg 52%
    17:00 +15°C° 0.2 mm 1 mps 706 mmHg 61%
    18:00 +13°C° 0.2 mm 1 mps 706 mmHg 70%
    19:00 +11°C° 0.2 mm 1 mps 706 mmHg 79%
    20:00 +11°C° 0 mm 1 mps 706 mmHg 82%
    21:00 +9°C° 0 mm 0 mps 706 mmHg 85%
    22:00 +9°C° 0 mm 0 mps 706 mmHg 89%
    23:00 +8°C° 0 mm 0 mps 706 mmHg 90%

    Tomorrow, 22 April, Monday

    Time Temperature Precipitation Wind Pressure Humidity
    00:00 +8°C° 0 mm 0 mps 706 mmHg 91%
    01:00 +8°C° 0 mm 0 mps 705 mmHg 92%
    02:00 +7°C° 0 mm 0 mps 705 mmHg 92%
    03:00 +7°C° 0 mm 0 mps 705 mmHg 93%
    04:00 +7°C° 0 mm 0 mps 705 mmHg 93%
    05:00 +9°C° 0 mm 1 mps 705 mmHg 90%
    06:00 +10°C° 0 mm 1 mps 705 mmHg 86%
    07:00 +12°C° 0 mm 1 mps 705 mmHg 83%
    08:00 +13°C° 0 mm 2 mps 705 mmHg 76%
    09:00 +15°C° 0 mm 2 mps 705 mmHg 69%
    10:00 +16°C° 0 mm 3 mps 705 mmHg 62%
    11:00 +16°C° 0 mm 3 mps 704 mmHg 62%
    12:00 +17°C° 0 mm 3 mps 704 mmHg 63%
    13:00 +17°C° 0 mm 3 mps 704 mmHg 64%
    14:00 +17°C° 0 mm 3 mps 704 mmHg 64%
    15:00 +17°C° 0 mm 3 mps 704 mmHg 64%
    16:00 +17°C° 0 mm 3 mps 703 mmHg 65%
    17:00 +14°C° 0.2 mm 3 mps 703 mmHg 73%
    18:00 +14°C° 0.2 mm 2 mps 703 mmHg 81%
    19:00 +13°C° 0.2 mm 2 mps 703 mmHg 89%
    20:00 +12°C° 1.3 mm 2 mps 703 mmHg 91%
    21:00 +12°C° 1.3 mm 2 mps 703 mmHg 94%
    22:00 +10°C° 1.3 mm 2 mps 703 mmHg 96%
    23:00 +10°C° 0.1 mm 2 mps 703 mmHg 96%

    Day after tomorrow, 23 April, Tuesday

    Time Temperature Precipitation Wind Pressure Humidity
    00:00 +10°C° 0.1 mm 2 mps 703 mmHg 95%
    01:00 +10°C° 0.1 mm 2 mps 703 mmHg 95%
    02:00 +9°C° 0.5 mm 2 mps 703 mmHg 96%
    03:00 +9°C° 0.5 mm 2 mps 702 mmHg 96%
    04:00 +9°C° 0.5 mm 2 mps 702 mmHg 96%
    05:00 +9°C° 0 mm 2 mps 702 mmHg 94%
    06:00 +10°C° 0 mm 3 mps 702 mmHg 92%
    07:00 +11°C° 0 mm 3 mps 703 mmHg 90%
    08:00 +11°C° 0 mm 3 mps 703 mmHg 86%
    09:00 +12°C° 0 mm 4 mps 703 mmHg 82%
    10:00 +13°C° 0 mm 4 mps 703 mmHg 78%
    11:00 +14°C° 0.1 mm 4 mps 704 mmHg 77%
    12:00 +14°C° 0.1 mm 5 mps 704 mmHg 75%
    13:00 +14°C° 0.1 mm 5 mps 704 mmHg 74%
    14:00 +15°C° 0 mm 4 mps 704 mmHg 73%
    15:00 +15°C° 0 mm 4 mps 704 mmHg 73%
    16:00 +15°C° 0 mm 4 mps 704 mmHg 72%
    17:00 +14°C° 0 mm 3 mps 704 mmHg 79%
    18:00 +12°C° 0 mm 3 mps 704 mmHg 85%
    19:00 +12°C° 0 mm 2 mps 704 mmHg 92%
    20:00 +10°C° 0 mm 2 mps 704 mmHg 93%
    21:00 +10°C° 0 mm 2 mps 705 mmHg 94%
    22:00 +10°C° 0 mm 1 mps 705 mmHg 95%
    23:00 +10°C° 0 mm 1 mps 705 mmHg 95%

    24 April, Wednesday

    Time Temperature Precipitation Wind Pressure Humidity
    00:00 +10°C° 0 mm 1 mps 705 mmHg 95%
    01:00 +10°C° 0 mm 1 mps 705 mmHg 94%
    02:00 +10°C° 0 mm 1 mps 705 mmHg 95%
    03:00 +9°C° 0 mm 1 mps 705 mmHg 95%
    04:00 +9°C° 0 mm 1 mps 705 mmHg 95%
    05:00 +10°C° 0 mm 1 mps 705 mmHg 91%
    06:00 +12°C° 0 mm 1 mps 706 mmHg 88%
    07:00 +13°C° 0 mm 1 mps 706 mmHg 84%
    08:00 +15°C° 0 mm 2 mps 706 mmHg 77%
    09:00 +17°C° 0 mm 2 mps 707 mmHg 70%
    10:00 +19°C° 0 mm 3 mps 707 mmHg 63%
    11:00 +20°C° 0 mm 3 mps 707 mmHg 59%
    12:00 +21°C° 0 mm 3 mps 707 mmHg 56%
    13:00 +23°C° 0 mm 4 mps 707 mmHg 53%
    14:00 +22°C° 0 mm 4 mps 707 mmHg 55%
    15:00 +22°C° 0 mm 4 mps 707 mmHg 57%
    16:00 +22°C° 0 mm 4 mps 706 mmHg 60%
    17:00 +20°C° 0 mm 3 mps 706 mmHg 69%
    18:00 +17°C° 0 mm 2 mps 706 mmHg 79%
    19:00 +15°C° 0 mm 2 mps 706 mmHg 89%
    20:00 +15°C° 0 mm 1 mps 706 mmHg 90%
    21:00 +14°C° 0 mm 1 mps 707 mmHg 92%
    22:00 +13°C° 0 mm 1 mps 707 mmHg 93%
    23:00 +13°C° 0 mm 1 mps 707 mmHg 93%

    25 April, Thursday

    Time Temperature Precipitation Wind Pressure Humidity
    00:00 +13°C° 0 mm 1 mps 707 mmHg 92%
    01:00 +13°C° 0 mm 1 mps 707 mmHg 91%
    02:00 +13°C° 0.1 mm 1 mps 706 mmHg 90%
    03:00 +12°C° 0.1 mm 0 mps 706 mmHg 88%
    04:00 +11°C° 0.1 mm 0 mps 706 mmHg 87%
    05:00 +14°C° 0.1 mm 1 mps 706 mmHg 83%
    06:00 +15°C° 0.1 mm 1 mps 707 mmHg 80%
    07:00 +16°C° 0.1 mm 1 mps 707 mmHg 76%
    08:00 +19°C° 0 mm 1 mps 707 mmHg 69%
    09:00 +20°C° 0 mm 2 mps 708 mmHg 63%
    10:00 +23°C° 0 mm 2 mps 708 mmHg 56%
    11:00 +24°C° 0 mm 3 mps 708 mmHg 52%
    12:00 +25°C° 0 mm 3 mps 708 mmHg 48%
    13:00 +26°C° 0 mm 3 mps 708 mmHg 43%
    14:00 +25°C° 0 mm 3 mps 707 mmHg 50%
    15:00 +24°C° 0 mm 3 mps 707 mmHg 56%
    16:00 +22°C° 0 mm 3 mps 707 mmHg 62%
    17:00 +20°C° 0.3 mm 2 mps 706 mmHg 69%
    18:00 +18°C° 0.3 mm 2 mps 706 mmHg 76%
    19:00 +16°C° 0.3 mm 1 mps 706 mmHg 83%
    20:00 +16°C° 0 mm 1 mps 706 mmHg 83%
    21:00 +15°C° 0 mm 1 mps 706 mmHg 83%
    22:00 +14°C° 0 mm 1 mps 706 mmHg 83%
    23:00 +14°C° 0 mm 1 mps 705 mmHg 83%

    26 April, Friday

    Time Temperature Precipitation Wind Pressure Humidity
    00:00 +14°C° 0 mm 1 mps 705 mmHg 82%
    01:00 +13°C° 0 mm 1 mps 705 mmHg 81%
    02:00 +13°C° 0 mm 1 mps 705 mmHg 80%
    03:00 +13°C° 0 mm 1 mps 705 mmHg 78%
    04:00 +13°C° 0 mm 1 mps 704 mmHg 77%
    05:00 +14°C° 0 mm 1 mps 705 mmHg 72%
    06:00 +16°C° 0 mm 1 mps 705 mmHg 67%
    07:00 +17°C° 0 mm 0 mps 705 mmHg 63%
    08:00 +20°C° 0 mm 1 mps 705 mmHg 57%
    09:00 +22°C° 0 mm 1 mps 705 mmHg 51%
    10:00 +24°C° 0 mm 2 mps 705 mmHg 46%
    11:00 +25°C° 0 mm 2 mps 705 mmHg 45%
    12:00 +26°C° 0 mm 2 mps 705 mmHg 44%
    13:00 +27°C° 0 mm 2 mps 705 mmHg 43%
    14:00 +26°C° 0 mm 2 mps 704 mmHg 46%
    15:00 +26°C° 0 mm 1 mps 704 mmHg 49%
    16:00 +26°C° 0 mm 1 mps 704 mmHg 52%
    17:00 +24°C° 0.3 mm 1 mps 704 mmHg 60%
    18:00 +21°C° 0.3 mm 1 mps 703 mmHg 68%
    19:00 +19°C° 0.3 mm 1 mps 703 mmHg 77%
    20:00 +18°C° 0.1 mm 1 mps 703 mmHg 80%
    21:00 +18°C° 0.1 mm 1 mps 703 mmHg 83%
    22:00 +16°C° 0.1 mm 1 mps 703 mmHg 86%
    23:00 +15°C° 0 mm 1 mps 703 mmHg 86%
    Show more